FW9298 Weather Reports


time (UTC)temp
F
wind
direction
speed
knots
gust
knots
rain 1hr
in
rain 24hr
in
rain mn
in
humidity
%
barometer
mb
20260510150017 82 240 4.3 9.6 0.00 0.27 0.00 81 1016.5
20260510145018 80 212 1.7 6.1 0.00 0.27 0.00 89 1016.5
20260510144018 80 229 2.6 7.0 0.00 0.27 0.00 88 1016.5
20260510143018 80 246 2.6 6.1 0.00 0.27 0.00 87 1016.5
20260510142018 80 276 1.7 4.3 0.00 0.27 0.00 89 1016.4
20260510141038 79 227 2.6 7.0 0.00 0.27 0.00 91 1016.4
20260510140041 78 242 1.7 4.3 0.00 0.27 0.00 93 1016.3
20260510135015 78 2 0.9 3.5 0.00 0.27 0.00 93 1016.2
20260510134016 78 6 1.7 4.3 0.00 0.27 0.00 93 1016.1
20260510133016 78 209 2.6 6.1 0.00 0.27 0.00 93 1016.2
20260510132036 76 184 0.9 2.6 0.00 0.27 0.00 96 1016.1
20260510131036 75 200 1.7 3.5 0.00 0.27 0.00 97 1016.1
20260510130016 74 192 2.6 4.3 0.00 0.27 0.00 98 1015.9
20260510125037 73 205 2.6 4.3 0.00 0.27 0.00 99 1015.8
20260510124017 73 229 0.9 2.6 0.00 0.27 0.00 100 1015.9
20260510123017 72 193 0.9 1.7 0.00 0.27 0.00 100 1015.7
20260510122017 71 211 0.0 1.7 0.00 0.27 0.00 99 1015.6
20260510121037 69 107 0.9 1.7 0.00 0.27 0.00 99 1015.5
20260510120058 69 64 0.0 0.9 0.00 0.27 0.00 99 1015.4
20260510115023 68 161 0.0 0.0 0.00 0.27 0.00 99 1015.3
20260510114025 68 262 0.0 0.9 0.00 0.27 0.00 99 1015.0
20260510113024 68 164 0.0 0.9 0.00 0.27 0.00 99 1014.7
20260510112024 67 0.0 0.0 0.00 0.27 0.00 99 1014.7
20260510111024 67 0.0 0.0 0.00 0.27 0.00 99 1014.5
20260510110024 67 70 0.0 0.9 0.00 0.27 0.00 100 1014.3
20260510105024 67 15 0.0 0.9 0.00 0.27 0.00 100 1014.1
20260510104025 67 313 0.9 1.7 0.00 0.27 0.00 100 1014.0
20260510103036 67 47 0.0 0.9 0.00 0.27 0.00 100 1013.8
20260510102016 67 98 0.0 0.9 0.00 0.27 0.00 100 1013.8
20260510101042 67 280 0.0 0.9 0.00 0.27 0.00 100 1013.7
20260510100037 67 312 0.0 1.7 0.00 0.27 0.00 100 1013.6
20260510095018 67 196 0.0 0.9 0.00 0.27 0.00 99 1013.6
20260510094037 67 234 0.0 1.7 0.00 0.27 0.00 99 1013.6
20260510093017 67 281 0.9 1.7 0.00 0.27 0.00 99 1013.6
20260510092058 67 45 0.9 1.7 0.00 0.27 0.00 99 1013.4
20260510091018 67 80 0.0 1.7 0.00 0.27 0.00 99 1013.3
20260510090018 68 309 0.9 0.9 0.00 0.27 0.00 99 1013.2
20260510085019 68 290 0.0 0.9 0.00 0.27 0.00 99 1013.1
20260510084016 67 27 0.9 1.7 0.00 0.27 0.00 99 1013.0
20260510083017 67 326 0.0 0.9 0.00 0.27 0.00 99 1013.0
20260510082019 68 0.0 0.0 0.00 0.27 0.00 99 1012.9
20260510081016 68 195 0.0 0.9 0.00 0.27 0.00 99 1012.8
20260510080022 68 42 0.0 0.9 0.00 0.27 0.00 99 1012.8
20260510075016 68 61 0.0 0.0 0.00 0.27 0.00 98 1012.7
20260510074016 68 63 0.0 0.9 0.00 0.27 0.00 98 1012.7
20260510073016 68 349 0.0 0.9 0.00 0.27 0.00 98 1012.7
20260510072016 68 53 0.0 0.9 0.00 0.27 0.00 98 1012.7
20260510071017 68 90 0.9 0.9 0.00 0.27 0.00 98 1012.7
20260510070017 68 117 0.9 1.7 0.00 0.27 0.00 98 1012.8
20260510065017 68 142 0.0 1.7 0.00 0.27 0.00 98 1012.9
20260510064017 68 198 0.0 0.9 0.00 0.27 0.00 98 1013.0
20260510063037 68 136 0.0 1.7 0.00 0.27 0.00 98 1013.0
20260510062018 68 125 0.0 1.7 0.00 0.27 0.00 98 1013.1
20260510061018 68 132 0.9 1.7 0.00 0.27 0.00 97 1013.2
20260510060018 69 156 0.9 1.7 0.00 0.27 0.00 97 1013.3
20260510055018 69 162 1.7 3.5 0.00 0.27 0.00 97 1013.4
20260510054018 69 166 0.9 3.5 0.00 0.27 0.00 97 1013.5
20260510053015 69 177 1.7 3.5 0.00 0.27 0.00 97 1013.5
20260510052056 69 165 2.6 4.3 0.00 0.27 0.00 97 1013.6
20260510051016 69 180 2.6 5.2 0.00 0.27 0.00 97 1013.7
20260510050017 69 179 1.7 3.5 0.00 0.27 0.00 97 1013.8
20260510045036 69 170 1.7 4.3 0.00 0.27 0.00 98 1013.9
20260510044036 69 157 3.5 7.0 0.00 0.27 0.00 99 1013.9
20260510043017 69 151 4.3 7.0 0.00 0.27 0.00 99 1013.9
20260510042017 69 158 4.3 7.8 0.00 0.27 0.00 99 1014.1
20260510041057 68 152 2.6 3.5 0.00 0.27 0.00 99 1014.3
20260510040017 68 171 2.6 4.3 0.00 0.27 0.00 99 1014.5
20260510035017 68 159 1.7 4.3 0.00 0.27 0.27 99 1014.5
20260510034018 68 162 1.7 4.3 0.00 0.27 0.27 99 1014.6
20260510033038 68 157 2.6 4.3 0.00 0.27 0.27 99 1014.7
20260510032018 68 161 0.9 2.6 0.00 0.27 0.27 100 1014.7
20260510031018 68 189 0.9 2.6 0.00 0.27 0.27 100 1014.7
20260510030018 68 174 1.7 1.7 0.00 0.27 0.27 100 1014.6
20260510025015 68 207 0.9 1.7 0.00 0.27 0.27 100 1014.6
20260510024015 68 191 0.9 1.7 0.00 0.27 0.27 99 1014.4
20260510023016 68 190 0.9 1.7 0.00 0.27 0.27 99 1014.4
20260510022016 68 173 0.0 0.9 0.00 0.27 0.27 99 1014.2
20260510021036 68 281 0.0 0.9 0.00 0.27 0.27 99 1014.3
20260510020036 68 45 0.9 1.7 0.00 0.27 0.27 99 1014.3
20260510015016 68 160 0.0 0.9 0.00 0.27 0.27 99 1014.1
20260510014057 68 209 0.0 1.7 0.00 0.27 0.27 99 1014.0
20260510013037 69 73 0.9 1.7 0.00 0.27 0.27 99 1013.7
20260510012020 69 66 0.9 2.6 0.00 0.27 0.27 99 1013.7
20260510011017 69 66 1.7 2.6 0.00 0.27 0.27 99 1013.5
20260510010017 69 70 1.7 3.5 0.00 0.27 0.27 98 1013.4
20260510005017 69 127 1.7 2.6 0.00 0.27 0.27 98 1013.3
20260510004058 69 82 1.7 2.6 0.00 0.27 0.27 98 1013.1
20260510003018 69 102 1.7 2.6 0.00 0.27 0.27 98 1013.3
20260510002018 69 68 0.9 2.6 0.00 0.27 0.27 98 1013.1
20260510001018 69 69 0.9 2.6 0.00 0.27 0.27 98 1013.0
20260510000018 69 69 2.6 2.6 0.00 0.27 0.27 98 1013.0
20260509235018 69 62 1.7 3.5 0.00 0.27 0.27 98 1013.0
20260509234035 69 62 2.6 4.3 0.00 0.27 0.27 98 1013.0
20260509233015 69 70 2.6 4.3 0.00 0.27 0.27 98 1013.1
20260509232036 69 41 1.7 3.5 0.00 0.27 0.27 98 1013.3
20260509231016 69 47 2.6 5.2 0.00 0.27 0.27 97 1013.4
20260509230016 69 46 2.6 5.2 0.04 0.27 0.27 97 1013.2
20260509225016 69 54 3.5 6.1 0.07 0.27 0.27 97 1013.1
20260509224016 68 39 3.5 6.1 0.07 0.27 0.27 97 1013.2
20260509223018 69 39 4.3 7.8 0.08 0.27 0.27 97 1013.3
20260509222017 69 39 4.3 7.0 0.08 0.27 0.27 96 1013.5
20260509221017 69 51 4.3 7.0 0.23 0.27 0.27 95 1013.6
20260509220017 69 23 1.7 4.3 0.20 0.22 0.22 95 1014.0
20260509215017 70 354 0.9 2.6 0.18 0.19 0.19 94 1013.9
20260509214018 70 46 2.6 3.5 0.19 0.19 0.19 93 1013.8
20260509213018 70 346 0.9 2.6 0.19 0.19 0.19 92 1013.7
20260509212018 71 237 2.6 6.1 0.18 0.18 0.18 90 1013.7
20260509211018 72 32 5.2 7.8 0.04 0.04 0.04 88 1012.9
20260509210059 73 1 3.5 6.1 0.03 0.03 0.03 85 1013.2
20260509205018 75 1 4.3 9.6 0.02 0.02 0.02 82 1013.1
20260509204016 79 17 6.1 11.3 0.00 0.00 0.00 79 1012.5
20260509203056 80 329 0.9 2.6 0.00 0.00 0.00 79 1012.5
20260509202056 80 337 0.9 2.6 0.00 0.00 0.00 78 1012.6
20260509201016 80 337 1.7 5.2 0.00 0.00 0.00 78 1012.6
20260509200016 80 317 1.7 4.3 0.00 0.00 0.00 79 1012.6
20260509195016 80 255 0.9 2.6 0.00 0.00 0.00 79 1012.6
20260509194016 80 253 1.7 3.5 0.00 0.00 0.00 80 1012.8
20260509193017 80 261 0.9 3.5 0.00 0.00 0.00 80 1012.8
20260509192017 80 301 0.9 2.6 0.00 0.00 0.00 80 1013.0
20260509191017 80 254 1.7 4.3 0.00 0.00 0.00 79 1012.9
20260509190037 80 259 2.6 7.0 0.00 0.00 0.00 78 1012.9
20260509185017 80 205 2.6 7.8 0.00 0.00 0.00 78 1013.1
20260509184017 80 225 2.6 7.0 0.00 0.00 0.00 78 1013.3
20260509183019 80 224 3.5 7.0 0.00 0.00 0.00 77 1013.3
20260509182018 80 232 3.5 7.8 0.00 0.00 0.00 76 1013.2
20260509181018 81 239 3.5 7.8 0.00 0.00 0.00 74 1013.3
20260509180018 81 221 3.5 7.8 0.00 0.00 0.00 72 1013.4
20260509175016 82 223 4.3 7.8 0.00 0.00 0.00 71 1013.5
20260509174016 83 221 3.5 8.7 0.00 0.00 0.00 68 1013.7
20260509173016 84 256 3.5 7.8 0.00 0.00 0.00 66 1013.7
20260509172016 85 224 3.5 7.0 0.00 0.00 0.00 65 1013.7
20260509171022 85 237 3.5 7.8 0.00 0.00 0.00 64 1013.6
20260509170036 85 229 3.5 7.8 0.00 0.00 0.00 65 1013.6
20260509165017 0 238 2.6 5.2 0.00 0.00 0.00
20260509164017 84 217 3.5 7.0 0.00 0.00 0.00 67 1013.6
20260509163016 84 211 3.5 7.0 0.00 0.00 0.00 69 1013.6
20260509162017 0 210 5.2 9.6 0.00 0.00 0.00
20260509161037 83 207 6.1 11.3 0.00 0.00 0.00 72 1013.7
20260509160023 83 205 6.1 9.6 0.00 0.00 0.00 73 1013.5
20260509155037 82 210 7.0 11.3 0.00 0.00 0.00 73 1013.3
20260509154038 82 220 3.5 7.8 0.00 0.00 0.00 75 1013.4
20260509153018 0 219 4.3 7.8 0.00 0.00 0.00
20260509152038 80 206 4.3 7.0 0.00 0.00 0.00 82 1013.3
20260509151018 79 189 4.3 7.0 0.00 0.00 0.00 83 1013.2